RYR22TS LIMC-LOWS

Flight info

Callsign RYR22TS
Flight time 0h 43m
Altitude 32000
Route OSKOR6P OSKOR DCT SUMIR DCT DETSA DCT UNKEN UNKEN2R
Aircraft B738/M-SDE2E3FGHIRWXY/LB1

Departure

Time 2026-05-04 20:06
Airport Milan Malpensa International Airport (LIMC)

Arrival

Time 2026-05-04 20:49
Airport Salzburg Airport (LOWS)
Time Latitude Longitude Altitude Speed Heading
2026-05-04 19:32 45.63223 8.71776 747 ft 0 kts 78°
2026-05-04 19:57 45.63225 8.71788 747 ft 7 kts 78°
2026-05-04 19:57 45.63204 8.71878 747 ft 14 kts 161°
2026-05-04 19:58 45.63078 8.71912 744 ft 19 kts 169°
2026-05-04 19:58 45.62996 8.72014 742 ft 16 kts 108°
2026-05-04 19:58 45.62891 8.72076 739 ft 17 kts 169°
2026-05-04 19:58 45.62762 8.72111 736 ft 22 kts 169°
2026-05-04 19:59 45.62585 8.72160 733 ft 26 kts 168°
2026-05-04 19:59 45.62410 8.72208 732 ft 25 kts 168°
2026-05-04 19:59 45.62235 8.72258 729 ft 25 kts 169°
2026-05-04 19:59 45.62060 8.72307 725 ft 26 kts 169°
2026-05-04 20:00 45.61873 8.72359 717 ft 28 kts 169°
2026-05-04 20:00 45.61675 8.72413 712 ft 29 kts 169°
2026-05-04 20:00 45.61472 8.72469 706 ft 30 kts 170°
2026-05-04 20:00 45.61274 8.72523 699 ft 27 kts 169°
2026-05-04 20:01 45.61126 8.72564 695 ft 16 kts 169°
2026-05-04 20:01 45.61086 8.72595 693 ft 0 kts 126°
2026-05-04 20:01 45.61085 8.72597 693 ft 0 kts 123°
2026-05-04 20:01 45.61078 8.72628 693 ft 9 kts 96°
2026-05-04 20:02 45.61094 8.72781 692 ft 19 kts 78°
2026-05-04 20:02 45.61121 8.72962 690 ft 19 kts 79°
2026-05-04 20:02 45.61196 8.73110 689 ft 18 kts 34°
2026-05-04 20:02 45.61298 8.73208 690 ft 17 kts 34°
2026-05-04 20:03 45.61398 8.73267 693 ft 14 kts 357°
2026-05-04 20:03 45.61483 8.73249 695 ft 11 kts 349°
2026-05-04 20:03 45.61551 8.73230 697 ft 8 kts 349°
2026-05-04 20:03 45.61610 8.73233 698 ft 10 kts 34°
2026-05-04 20:04 45.61628 8.73334 696 ft 11 kts 83°
2026-05-04 20:04 45.61630 8.73442 696 ft 10 kts 114°
2026-05-04 20:04 45.61588 8.73569 695 ft 15 kts 99°
2026-05-04 20:04 45.61612 8.73709 697 ft 13 kts 43°
2026-05-04 20:05 45.61691 8.73719 698 ft 11 kts 350°
2026-05-04 20:05 45.61873 8.73668 702 ft 59 kts 348°
2026-05-04 20:05 45.62513 8.73492 714 ft 130 kts 349°
2026-05-04 20:05 45.63541 8.73206 751 ft 184 kts 348°
2026-05-04 20:06 45.64831 8.72876 1257 ft 205 kts 350°
2026-05-04 20:06 45.66204 8.72694 2293 ft 205 kts
2026-05-04 20:06 45.67417 8.73399 2852 ft 217 kts 42°
2026-05-04 20:06 45.68089 8.74845 3257 ft 231 kts 73°
2026-05-04 20:07 45.68066 8.77142 3789 ft 247 kts 110°
2026-05-04 20:07 45.66799 8.79331 4480 ft 261 kts 150°
2026-05-04 20:07 45.65092 8.80212 5230 ft 266 kts 163°
2026-05-04 20:07 45.63530 8.81233 5931 ft 269 kts 139°
2026-05-04 20:08 45.62504 8.83281 6769 ft 267 kts 108°
2026-05-04 20:08 45.62404 8.85900 7515 ft 274 kts 77°
2026-05-04 20:08 45.63056 8.88366 8261 ft 279 kts 69°
2026-05-04 20:08 45.63784 8.90968 8995 ft 282 kts 75°
2026-05-04 20:09 45.64228 8.93675 9732 ft 283 kts 85°
2026-05-04 20:09 45.64389 8.96409 10416 ft 287 kts 90°
2026-05-04 20:09 45.64421 8.99361 10797 ft 303 kts 92°
2026-05-04 20:09 45.64415 9.02449 11173 ft 319 kts 92°
2026-05-04 20:10 45.64413 9.05651 11528 ft 336 kts 92°
2026-05-04 20:10 45.64426 9.09013 11875 ft 352 kts 91°
2026-05-04 20:10 45.64449 9.12562 12233 ft 368 kts 91°
2026-05-04 20:10 45.64481 9.16276 12774 ft 376 kts 91°
2026-05-04 20:11 45.64516 9.20008 13345 ft 383 kts 91°
2026-05-04 20:11 45.64551 9.23827 13985 ft 389 kts 91°
2026-05-04 20:11 45.64584 9.27690 14673 ft 393 kts 91°
2026-05-04 20:11 45.64614 9.31551 15318 ft 398 kts 91°
2026-05-04 20:12 45.64643 9.35510 15921 ft 403 kts 91°
2026-05-04 20:12 45.64672 9.39549 16541 ft 407 kts 91°
2026-05-04 20:12 45.64698 9.43621 17121 ft 412 kts 91°
2026-05-04 20:12 45.64723 9.47705 17718 ft 416 kts 91°
2026-05-04 20:13 45.64745 9.51840 18325 ft 420 kts 91°
2026-05-04 20:13 45.64766 9.56050 18916 ft 424 kts 91°
2026-05-04 20:13 45.64784 9.60230 19525 ft 427 kts 91°
2026-05-04 20:13 45.64803 9.64485 20116 ft 431 kts 91°
2026-05-04 20:14 45.64822 9.68744 20672 ft 434 kts 91°
2026-05-04 20:14 45.64838 9.73032 21209 ft 438 kts 91°
2026-05-04 20:14 45.64854 9.77378 21720 ft 442 kts 91°
2026-05-04 20:14 45.64869 9.81807 22252 ft 445 kts 91°
2026-05-04 20:15 45.64881 9.86218 22806 ft 448 kts 91°
2026-05-04 20:15 45.64891 9.90697 23285 ft 451 kts 91°
2026-05-04 20:15 45.64900 9.95165 23800 ft 454 kts 91°
2026-05-04 20:15 45.64907 9.99717 24276 ft 458 kts 91°
2026-05-04 20:16 45.64993 10.04269 24750 ft 462 kts 87°
2026-05-04 20:16 45.65401 10.08851 25184 ft 467 kts 79°
2026-05-04 20:16 45.66289 10.13285 25636 ft 470 kts 70°
2026-05-04 20:16 45.67663 10.17522 26121 ft 473 kts 61°
2026-05-04 20:17 45.69391 10.21581 26525 ft 476 kts 56°
2026-05-04 20:17 45.71259 10.25427 26961 ft 479 kts 54°
2026-05-04 20:17 45.73240 10.29259 27356 ft 482 kts 53°
2026-05-04 20:17 45.75265 10.33094 27784 ft 485 kts 53°
2026-05-04 20:18 45.77316 10.36981 28200 ft 487 kts 53°
2026-05-04 20:18 45.79359 10.40898 28573 ft 491 kts 53°
2026-05-04 20:18 45.81363 10.44796 28956 ft 493 kts 53°
2026-05-04 20:18 45.83359 10.48729 29311 ft 496 kts 54°
2026-05-04 20:19 45.85404 10.52803 29801 ft 495 kts 54°
2026-05-04 20:19 45.87392 10.56799 30403 ft 492 kts 54°
2026-05-04 20:19 45.89376 10.60808 30862 ft 491 kts 54°
2026-05-04 20:19 45.91325 10.64763 31364 ft 489 kts 54°
2026-05-04 20:20 45.93282 10.68744 31711 ft 489 kts 55°
2026-05-04 20:20 45.95212 10.72679 32088 ft 489 kts 55°
2026-05-04 20:20 45.97185 10.76708 32130 ft 492 kts 55°
2026-05-04 20:21 46.01112 10.84741 32127 ft 488 kts 55°
2026-05-04 20:21 46.06924 10.96664 32107 ft 488 kts 55°
2026-05-04 20:22 46.10812 11.04669 32108 ft 486 kts 55°
2026-05-04 20:22 46.14658 11.12608 32101 ft 487 kts 55°
2026-05-04 20:23 46.18541 11.20644 32097 ft 488 kts 55°
2026-05-04 20:23 46.22387 11.28629 32107 ft 487 kts 55°
2026-05-04 20:24 46.26300 11.36636 32117 ft 487 kts 53°
2026-05-04 20:24 46.30574 11.44202 32126 ft 486 kts 49°
2026-05-04 20:25 46.35032 11.51546 32128 ft 486 kts 48°
2026-05-04 20:25 46.39511 11.58888 32127 ft 486 kts 48°
2026-05-04 20:26 46.43975 11.66291 32126 ft 486 kts 49°
2026-05-04 20:26 46.48377 11.73672 32122 ft 486 kts 50°
2026-05-04 20:27 46.52792 11.81129 32116 ft 485 kts 50°
2026-05-04 20:27 46.57163 11.88543 32120 ft 486 kts 50°
2026-05-04 20:28 46.61564 11.96030 32132 ft 485 kts 50°
2026-05-04 20:28 46.65923 12.03466 32134 ft 484 kts 50°
2026-05-04 20:29 46.70289 12.10930 32136 ft 485 kts 50°
2026-05-04 20:29 46.74665 12.18333 32148 ft 484 kts 47°
2026-05-04 20:30 46.79657 12.24850 32139 ft 483 kts 33°
2026-05-04 20:30 46.85662 12.29200 32122 ft 482 kts 20°
2026-05-04 20:31 46.88805 12.30763 31797 ft 477 kts 15°
2026-05-04 20:31 46.91998 12.32037 30786 ft 477 kts 13°
2026-05-04 20:31 46.95225 12.33118 29230 ft 480 kts 11°
2026-05-04 20:31 46.98449 12.34080 28227 ft 473 kts 10°
2026-05-04 20:32 47.01705 12.35010 27304 ft 480 kts 10°
2026-05-04 20:32 47.04935 12.35928 26360 ft 471 kts 10°
2026-05-04 20:32 47.08116 12.36847 25397 ft 461 kts 11°
2026-05-04 20:32 47.11242 12.37768 24427 ft 452 kts 11°
2026-05-04 20:33 47.14265 12.38676 23471 ft 444 kts 11°
2026-05-04 20:33 47.17256 12.39584 22529 ft 436 kts 11°
2026-05-04 20:33 47.20206 12.40491 21588 ft 428 kts 11°
2026-05-04 20:33 47.23051 12.41376 20672 ft 421 kts 11°
2026-05-04 20:34 47.25909 12.42274 19741 ft 414 kts 11°
2026-05-04 20:34 47.28677 12.43146 18834 ft 408 kts 11°
2026-05-04 20:34 47.31425 12.44013 17917 ft 402 kts 11°
2026-05-04 20:34 47.34124 12.44864 17004 ft 397 kts 11°
2026-05-04 20:35 47.36813 12.45711 16083 ft 392 kts 11°
2026-05-04 20:35 47.39458 12.46542 15166 ft 388 kts 11°
2026-05-04 20:35 47.42060 12.47360 14254 ft 384 kts 11°
2026-05-04 20:35 47.44650 12.48176 13339 ft 381 kts 11°
2026-05-04 20:36 47.47208 12.48983 12449 ft 377 kts 11°
2026-05-04 20:36 47.49766 12.49790 11596 ft 371 kts 11°
2026-05-04 20:36 47.52249 12.50576 10948 ft 361 kts 11°
2026-05-04 20:36 47.54658 12.51338 10412 ft 349 kts 11°
2026-05-04 20:37 47.56972 12.52071 9877 ft 338 kts 11°
2026-05-04 20:37 47.59241 12.52790 9365 ft 327 kts 11°
2026-05-04 20:37 47.61414 12.53480 8976 ft 314 kts 11°
2026-05-04 20:37 47.63511 12.54147 8668 ft 300 kts 11°
2026-05-04 20:38 47.65485 12.54775 8382 ft 287 kts 12°
2026-05-04 20:38 47.67388 12.55381 8118 ft 275 kts 12°
2026-05-04 20:38 47.69266 12.55979 7858 ft 277 kts 12°
2026-05-04 20:38 47.71119 12.56570 7660 ft 267 kts 12°
2026-05-04 20:39 47.72949 12.57155 7369 ft 271 kts 12°
2026-05-04 20:39 47.74807 12.57749 7077 ft 273 kts 12°
2026-05-04 20:39 47.76619 12.58328 6780 ft 264 kts 12°
2026-05-04 20:39 47.78413 12.58901 6478 ft 263 kts 12°
2026-05-04 20:40 47.80191 12.59469 6269 ft 253 kts 12°
2026-05-04 20:40 47.81799 12.60135 6276 ft 232 kts 22°
2026-05-04 20:40 47.83148 12.61412 6306 ft 233 kts 44°
2026-05-04 20:40 47.84203 12.63175 6716 ft 224 kts 50°
2026-05-04 20:41 47.85210 12.64910 7034 ft 219 kts 49°
2026-05-04 20:41 47.86245 12.66614 6968 ft 231 kts 48°
2026-05-04 20:41 47.87364 12.68403 6955 ft 238 kts 47°
2026-05-04 20:41 47.88495 12.70198 6938 ft 238 kts 47°
2026-05-04 20:42 47.89622 12.71997 6940 ft 238 kts 48°
2026-05-04 20:42 47.90747 12.73819 6957 ft 237 kts 48°
2026-05-04 20:42 47.91856 12.75624 6952 ft 236 kts 48°
2026-05-04 20:42 47.92968 12.77429 6966 ft 235 kts 48°
2026-05-04 20:43 47.94078 12.79227 6963 ft 237 kts 48°
2026-05-04 20:43 47.95170 12.80986 6942 ft 220 kts 48°
2026-05-04 20:43 47.96144 12.82553 6949 ft 198 kts 48°
2026-05-04 20:43 47.97089 12.84072 6941 ft 199 kts 48°
2026-05-04 20:44 47.97998 12.85568 6900 ft 192 kts 51°
2026-05-04 20:44 47.98618 12.87257 6514 ft 186 kts 79°
2026-05-04 20:44 47.98471 12.89136 5841 ft 188 kts 118°
2026-05-04 20:44 47.97567 12.90374 5410 ft 178 kts 160°
2026-05-04 20:45 47.96343 12.90512 5048 ft 179 kts 185°
2026-05-04 20:45 47.95113 12.90584 4581 ft 178 kts 166°
2026-05-04 20:45 47.93980 12.91181 4280 ft 162 kts 158°
2026-05-04 20:45 47.92973 12.91791 4097 ft 156 kts 158°
2026-05-04 20:46 47.91976 12.92409 3884 ft 154 kts 157°
2026-05-04 20:46 47.90977 12.93039 3673 ft 156 kts 157°
2026-05-04 20:46 47.89979 12.93670 3467 ft 157 kts 157°
2026-05-04 20:46 47.88979 12.94304 3252 ft 155 kts 157°
2026-05-04 20:47 47.87981 12.94935 3047 ft 155 kts 157°
2026-05-04 20:47 47.86990 12.95563 2833 ft 152 kts 157°
2026-05-04 20:47 47.86024 12.96175 2636 ft 151 kts 157°
2026-05-04 20:47 47.85066 12.96779 2433 ft 150 kts 157°
2026-05-04 20:48 47.84102 12.97388 2232 ft 149 kts 157°
2026-05-04 20:48 47.83155 12.97984 2043 ft 148 kts 157°
2026-05-04 20:48 47.82209 12.98583 1850 ft 147 kts 158°
2026-05-04 20:48 47.81265 12.99179 1644 ft 148 kts 157°
2026-05-04 20:49 47.80316 12.99777 1454 ft 148 kts 158°
2026-05-04 20:49 47.79441 13.00326 1409 ft 110 kts 157°
2026-05-04 20:49 47.78945 13.00641 1409 ft 49 kts 158°
2026-05-04 20:49 47.78746 13.00765 1410 ft 26 kts 158°
2026-05-04 20:50 47.78619 13.00843 1410 ft 13 kts 158°
2026-05-04 20:50 47.78554 13.00807 1412 ft 9 kts 240°
2026-05-04 20:50 47.78539 13.00757 1413 ft 0 kts 247°
2026-05-04 20:51 47.78529 13.00718 1413 ft 10 kts 256°
2026-05-04 20:51 47.78590 13.00597 1413 ft 19 kts 335°
2026-05-04 20:51 47.78714 13.00518 1413 ft 19 kts 338°
2026-05-04 20:52 47.78834 13.00442 1412 ft 18 kts 336°
2026-05-04 20:52 47.78957 13.00364 1412 ft 20 kts 337°
2026-05-04 20:52 47.79085 13.00282 1413 ft 19 kts 336°
2026-05-04 20:52 47.79205 13.00206 1414 ft 17 kts 336°
2026-05-04 20:53 47.79310 13.00141 1415 ft 12 kts 337°
2026-05-04 20:53 47.79353 13.00076 1419 ft 5 kts 272°
2026-05-04 20:53 47.79346 13.00030 1423 ft 4 kts 249°
2026-05-04 20:53 47.79332 12.99980 1425 ft 7 kts 245°
2026-05-04 20:54 47.79297 12.99977 1425 ft 7 kts 113°
2026-05-04 20:54 47.79287 13.00041 1423 ft 3 kts 102°
2026-05-04 20:54 47.79285 13.00053 1422 ft 0 kts 102°